Regional Weather Roundup
Issued by NWS

Home | Current Version | Previous Version | Text Only | Print | Product List | Glossary On
Versions: 1 2 3 4 5 6 7 8 9 10 11 12 13 14 15 16 17 18 19 20 21 22 23 24 25 26 27 28 29 30 31 32 33 34 35 36 37 38 39 40 41 42 43 44 45 46 47 48 49 50
000
ASUS43 KBIS 120231
RWRND
NORTH DAKOTA REGIONAL WEATHER ROUNDUP
NATIONAL WEATHER SERVICE EASTERN NORTH DAKOTA/GRAND FORKS ND
800 PM CST THU FEB 11 2016

  NOTE: "FAIR" INDICATES FEW OR NO CLOUDS BELOW 12,000 FEET WITH NO
  SIGNIFICANT WEATHER AND/OR OBSTRUCTIONS TO VISIBILITY.

NDZ001>003-009>011-017-120300-
...NORTHWEST NORTH DAKOTA...

CITY           SKY/WX    TMP DP  RH WIND       PRES   REMARKS
WILLISTON      CLOUDY    21  16  81 NE7       30.28R WCI  12
MINOT          CLOUDY    19  10  68 NW5       30.27S WCI  12
MINOT AFB      CLOUDY    15  11  83 CALM      30.26F
$$

NDZ018>021-031>035-040>046-120300-
...SOUTHWEST NORTH DAKOTA...

CITY           SKY/WX    TMP DP  RH WIND       PRES   REMARKS
BISMARCK       CLOUDY    23  15  71 N10       30.28R WCI  12
DICKINSON      CLOUDY    23  18  81 N3        30.19R
GARRISON         N/A     19  14  81 CALM      30.26S
HETTINGER      CLOUDY    24  20  84 N8        30.23R WCI  15
$$

NDZ004>008-012>016-024-026-027-054-120300-
...NORTHEAST NORTH DAKOTA...

CITY           SKY/WX    TMP DP  RH WIND       PRES   REMARKS
GRAND FORKS    CLOUDY    13   5  70 N12       30.29R WCI  -1
GRAND FORKS AF CLOUDY    11   5  77 N7        30.29R WCI   1
DEVILS LAKE    FLURRIES   9   5  85 NW7       30.28S WCI  -3
$$

NDZ022-023-025-028>030-036>039-047>053-120300-
...SOUTHEAST NORTH DAKOTA...

CITY           SKY/WX    TMP DP  RH WIND       PRES   REMARKS
JAMESTOWN      CLOUDY    13   8  81 N13       30.25R WCI  -2
FARGO          CLOUDY    14   6  70 NW7       30.28R WCI   4
WAHPETON       CLOUDY    12   9  85 N9        30.27S WCI   0
$$



USA.gov is the U.S. government's official web portal to all federal, state and local government web resources and services.